{"data":{"norad_id":64251,"intl_designator":"2025-119U","name":"STARLINK-34224","alt_names":[],"object_type":"PAYLOAD","status":"ACTIVE","operator":null,"country":"US","launch_date":"2025-06-03","launch_site_code":"AFETR","launch_vehicle":null,"mission":null,"orbit_class":"UNKNOWN","rcs_meters":null,"size_class":null,"mass_kg":null,"dimensions":null,"purposes":["comms"],"wikipedia_slug":null,"has_3d_model":false,"image_url":null,"decayed_at":null,"tle_current":{"epoch":"2026-05-24T22:33:41.539104Z","epoch_age_seconds":79946,"freshness":"FRESH","line1":"1 64251U 25119U   26144.94006411  .00020308  00000+0  74526-3 0  9997","line2":"2 64251  42.9960 236.1853 0001184 272.9916  87.0800 15.27588153 55837","mean_motion":15.27588153,"eccentricity":0.0001184,"inclination_deg":42.996,"raan_deg":236.1853,"arg_perigee_deg":272.9916,"mean_anomaly_deg":87.08,"bstar":0.00074526,"rev_number":5583,"period_min":94.266245595844,"perigee_km":482.21232158992,"apogee_km":483.83704467649,"semimajor_km":6861.1616831332,"source":"CELESTRAK","updated_at":"2026-05-25T13:38:20.355152Z"}}}